TimeEDT,TemperatureF,Dew PointF,Humidity,Sea Level PressureIn,VisibilityMPH,Wind Direction,Wind SpeedMPH,Gust SpeedMPH,PrecipitationIn,Events,Conditions,WindDirDegrees,DateUTC
12:53 AM,71.1,68.0,90,29.98,5.0,Calm,Calm,-,N/A,,Clear,0,2013-08-01 04:53:00
1:53 AM,69.1,68.0,96,29.96,4.0,Calm,Calm,-,N/A,,Clear,0,2013-08-01 05:53:00
2:41 AM,68.0,66.2,94,29.97,2.5,Calm,Calm,-,N/A,,Partly Cloudy,0,2013-08-01 06:41:00
2:49 AM,69.8,68.0,94,29.97,5.0,Calm,Calm,-,N/A,,Partly Cloudy,0,2013-08-01 06:49:00
2:53 AM,69.1,68.0,96,29.96,5.0,Calm,Calm,-,N/A,,Scattered Clouds,0,2013-08-01 06:53:00
3:53 AM,69.1,68.0,96,29.95,5.0,Calm,Calm,-,N/A,,Overcast,0,2013-08-01 07:53:00
4:53 AM,69.1,68.0,96,29.94,6.0,SSW,3.5,-,N/A,,Mostly Cloudy,210,2013-08-01 08:53:00
5:50 AM,69.8,68.0,94,29.97,7.0,Calm,Calm,-,N/A,,Overcast,0,2013-08-01 09:50:00
5:53 AM,70.0,68.0,93,29.96,7.0,Calm,Calm,-,N/A,,Overcast,0,2013-08-01 09:53:00
6:02 AM,69.8,68.0,94,29.97,7.0,Calm,Calm,-,N/A,,Overcast,0,2013-08-01 10:02:00
6:38 AM,69.8,68.0,94,29.98,6.0,WNW,4.6,-,N/A,,Overcast,290,2013-08-01 10:38:00
6:53 AM,70.0,68.0,93,29.98,6.0,WNW,5.8,-,N/A,,Overcast,300,2013-08-01 10:53:00
7:50 AM,69.8,68.0,94,30.00,4.0,NNW,3.5,-,N/A,,Overcast,330,2013-08-01 11:50:00
7:53 AM,70.0,68.0,93,29.99,4.0,NW,3.5,-,N/A,,Overcast,320,2013-08-01 11:53:00
8:14 AM,71.6,68.0,88,30.01,4.0,NW,3.5,-,N/A,,Overcast,320,2013-08-01 12:14:00
8:36 AM,71.6,68.0,88,30.01,5.0,NNW,5.8,-,N/A,,Overcast,330,2013-08-01 12:36:00
8:53 AM,72.0,68.0,87,30.00,5.0,NNW,5.8,-,N/A,,Overcast,340,2013-08-01 12:53:00
9:39 AM,73.4,66.2,78,30.02,5.0,NNW,8.1,-,N/A,,Haze,340,2013-08-01 13:39:00
9:53 AM,73.0,66.0,79,30.01,6.0,NNW,8.1,-,N/A,,Haze,340,2013-08-01 13:53:00
10:53 AM,75.9,64.9,69,30.01,10.0,Variable,4.6,-,N/A,,Partly Cloudy,0,2013-08-01 14:53:00
11:53 AM,78.1,64.9,64,30.02,10.0,North,3.5,-,N/A,,Partly Cloudy,10,2013-08-01 15:53:00
12:53 PM,79.0,64.0,60,30.02,10.0,NNW,6.9,-,N/A,,Mostly Cloudy,330,2013-08-01 16:53:00
1:53 PM,81.0,64.9,58,30.00,10.0,NNW,6.9,-,N/A,,Mostly Cloudy,340,2013-08-01 17:53:00
2:53 PM,82.0,63.0,52,29.99,10.0,NW,10.4,-,N/A,,Scattered Clouds,320,2013-08-01 18:53:00
3:53 PM,84.0,61.0,46,29.99,10.0,WNW,11.5,16.1,N/A,,Partly Cloudy,300,2013-08-01 19:53:00
4:53 PM,84.0,60.1,44,29.97,10.0,NNW,9.2,-,N/A,,Scattered Clouds,340,2013-08-01 20:53:00
5:53 PM,84.9,57.9,40,29.97,10.0,NW,8.1,-,N/A,,Clear,320,2013-08-01 21:53:00
6:53 PM,82.9,57.9,42,29.97,10.0,NNW,8.1,-,N/A,,Scattered Clouds,330,2013-08-01 22:53:00
7:53 PM,82.0,57.9,44,29.96,10.0,NW,6.9,-,N/A,,Clear,310,2013-08-01 23:53:00
8:53 PM,78.1,57.9,50,29.97,10.0,Calm,Calm,-,N/A,,Clear,0,2013-08-02 00:53:00
9:53 PM,75.0,59.0,57,29.99,10.0,WNW,3.5,-,N/A,,Clear,290,2013-08-02 01:53:00
10:53 PM,73.9,61.0,64,29.99,10.0,Calm,Calm,-,N/A,,Clear,0,2013-08-02 02:53:00
11:53 PM,66.9,60.1,79,30.00,10.0,Calm,Calm,-,N/A,,Clear,0,2013-08-02 03:53:00